Weather History for KTBN - March, 2013

Change the Weather History Date:

Sunday, March 10, 2013

  Actual Average (KVIH) Record (KVIH)
Temperature  
Mean Temperature 46 °F 43 °F  
Max Temperature 59 °F 54 °F 85 °F (1955)
Min Temperature 33 °F 33 °F 12 °F (1969)
Degree Days  
Heating Degree Days 18 22  
Month to date heating degree days 235  
Since 1 July heating degree days 4025  
Cooling Degree Days 0 0  
Month to date cooling degree days 0  
Year to date cooling degree days 0  
Moisture  
Dew Point 49 °F    
Average Humidity 95    
Maximum Humidity 100    
Minimum Humidity 63    
Precipitation  
Precipitation 1.17 in 0.10 in 1.85 in (1973)
Month to date precipitation 0.89  
Year to date precipitation 4.99  
Sea Level Pressure  
Sea Level Pressure 29.72 in    
Wind  
Wind Speed 9 mph (SW)    
Max Wind Speed 20 mph    
Max Gust Speed 30 mph    
Visibility 8 miles    
Events Rain , Thunderstorm    
T = Trace of Precipitation, MM = Missing Value Source: NWS Daily Summary

Daily Weather History Graph

Daily Weather History Graph

Search for Another Location

Airport or City:

Trip Planner

Search our weather history database for the weather conditions in past years. The results will help you decide how hot, cold, wet, or windy it might be!

Date:

Astronomy

Mar. 10, 2013 Rise Set
Actual Time 7:26 AM CDT 7:11 PM CDT
Civil Twilight 7:00 AM CDT 7:37 PM CDT
Nautical Twilight 6:30 AM CDT 8:07 PM CDT
Astronomical Twilight 5:59 AM CDT 8:38 PM CDT
Moon 6:26 AM CDT (3/10) 6:19 PM CDT (3/10)
Length of Visible Light 12h 36m
Length of Day
11h 44m
Waning Crescent, 2% of the Moon is Illuminated
Mar 10
Waning Crescent
Mar 11
New
Mar 19
First Quarter
Mar 27
Full
Apr 2
Last Quarter

Hourly Weather History & Observations

Time (CDT) Temp. Windchill Dew Point Humidity Pressure Visibility Wind Dir Wind Speed Gust Speed Precip Events Conditions
12:13 AM 59.0 °F - 50.0 °F 72% 29.77 in 10.0 mi SSW 6.9 mph 20.7 mph N/A Thunderstorm Overcast
12:15 AM 59.0 °F - 50.0 °F 72% 29.78 in 8.0 mi SSW 10.4 mph - N/A Rain , Thunderstorm Light Thunderstorms and Rain
12:25 AM 57.2 °F - 53.6 °F 88% 29.76 in 2.5 mi Variable 6.9 mph - N/A Rain , Thunderstorm Heavy Thunderstorms and Rain
12:30 AM 55.4 °F - 55.4 °F 100% 29.76 in 3.0 mi South 11.5 mph 17.3 mph N/A Rain , Thunderstorm Thunderstorms and Rain
12:40 AM 55.4 °F - 55.4 °F 100% 29.76 in 6.0 mi South 8.1 mph 17.3 mph N/A Rain , Thunderstorm Light Rain
12:45 AM 55.4 °F - 55.4 °F 100% 29.75 in 6.0 mi South 9.2 mph - N/A Rain Light Rain
12:50 AM 55.4 °F - 55.4 °F 100% 29.75 in 6.0 mi SSE 10.4 mph - N/A Rain Rain
12:58 AM 55.4 °F - 55.0 °F 99% 29.75 in 5.0 mi South 9.2 mph - 0.24 in Rain Rain
1:38 AM 55.4 °F - 55.4 °F 100% 29.75 in 7.0 mi SSE 10.4 mph - N/A Rain Light Rain
1:48 AM 55.4 °F - 55.4 °F 100% 29.74 in 9.0 mi SSE 10.4 mph 18.4 mph N/A   Overcast
1:58 AM 55.4 °F - 55.4 °F 100% 29.73 in 10.0 mi SSE 12.7 mph 18.4 mph 0.10 in   Overcast
3:00 AM 55.4 °F - 55.4 °F 100% 29.73 in 10.0 mi SSE 10.4 mph - N/A Rain Light Rain
3:05 AM 55.4 °F - 55.4 °F 100% 29.73 in 10.0 mi SSE 12.7 mph - N/A Rain Light Rain
3:10 AM 55.4 °F - 55.4 °F 100% 29.73 in 10.0 mi SSE 11.5 mph - N/A Rain Light Rain
3:30 AM 55.4 °F - 55.4 °F 100% 29.72 in 10.0 mi South 12.7 mph - N/A Rain Light Rain
3:58 AM 55.0 °F - 55.0 °F 100% 29.69 in 10.0 mi SSE 15.0 mph 21.9 mph 0.02 in Rain Light Rain
4:13 AM 55.4 °F - 55.4 °F 100% 29.69 in 9.0 mi SSE 11.5 mph 19.6 mph N/A Rain Light Rain
4:36 AM 55.4 °F - 55.4 °F 100% 29.66 in 10.0 mi SSE 16.1 mph 23.0 mph N/A   Mostly Cloudy
4:40 AM 55.4 °F - 55.4 °F 100% 29.65 in 10.0 mi SSE 16.1 mph 23.0 mph N/A   Light Drizzle
4:58 AM 54.7 °F - 54.7 °F 100% 29.65 in 10.0 mi SSE 19.6 mph 24.2 mph 0.03 in   Light Drizzle
5:13 AM 55.4 °F - 55.4 °F 100% 29.66 in 10.0 mi SSE 16.1 mph - N/A   Overcast
5:27 AM 55.4 °F - 55.4 °F 100% 29.68 in 10.0 mi SSE 12.7 mph 23.0 mph N/A Rain Light Rain
5:41 AM 55.4 °F - 55.4 °F 100% 29.69 in 10.0 mi South 10.4 mph 23.0 mph N/A   Mostly Cloudy
5:54 AM 55.4 °F - 55.4 °F 100% 29.71 in 10.0 mi SSW 8.1 mph - N/A Rain Light Rain
5:58 AM 55.4 °F - 55.4 °F 100% 29.71 in 10.0 mi SSW 8.1 mph - 0.00 in Rain Light Rain
6:36 AM 55.4 °F - 55.4 °F 100% 29.70 in 10.0 mi SSE 5.8 mph - N/A   Overcast
6:58 AM 54.5 °F - 54.5 °F 100% 29.70 in 10.0 mi SSE 6.9 mph - 0.02 in   Overcast
7:32 AM 53.6 °F - 53.6 °F 100% 29.71 in 10.0 mi SSE 4.6 mph - N/A Rain Light Rain
7:42 AM 53.6 °F - 53.6 °F 100% 29.73 in 7.0 mi South 3.5 mph - N/A Rain Light Rain
7:58 AM 53.6 °F - 53.6 °F 100% 29.73 in 6.0 mi SSW 2.3 mph - 0.01 in Rain Light Rain
8:08 AM 53.6 °F - 53.6 °F 100% 29.74 in 4.0 mi SSW 3.5 mph - N/A Rain Light Rain
8:13 AM 53.6 °F - 53.6 °F 100% 29.73 in 4.0 mi SSW 3.5 mph - N/A Rain Light Rain
8:48 AM 53.6 °F - 53.6 °F 100% 29.72 in 3.0 mi WNW 8.1 mph 17.3 mph N/A Rain Light Rain
8:58 AM 50.0 °F - 50.0 °F 100% 29.72 in 4.0 mi WNW 6.9 mph - 0.08 in Rain Rain
9:08 AM 50.0 °F - 50.0 °F 100% 29.68 in 5.0 mi NW 6.9 mph - N/A Rain Rain
9:18 AM 50.0 °F - 50.0 °F 100% 29.70 in 2.5 mi WNW 9.2 mph - N/A Rain Rain
9:23 AM 50.0 °F - 50.0 °F 100% 29.70 in 4.0 mi WNW 8.1 mph - N/A Rain Rain
9:33 AM 50.0 °F - 50.0 °F 100% 29.71 in 7.0 mi WNW 9.2 mph - N/A Rain Light Rain
9:58 AM 49.6 °F - 49.6 °F 100% 29.78 in 2.0 mi West 6.9 mph - 0.14 in Rain Rain
10:13 AM 48.2 °F - 48.2 °F 100% 29.75 in 3.0 mi West 3.5 mph - N/A Rain Rain
10:18 AM 48.2 °F - 48.2 °F 100% 29.74 in 2.0 mi West 3.5 mph - N/A Rain Rain
10:23 AM 48.2 °F - 48.2 °F 100% 29.73 in 1.5 mi Variable 1.2 mph - N/A Rain Rain
10:43 AM 48.2 °F - 48.2 °F 100% 29.73 in 2.0 mi SW 2.3 mph - N/A Rain Rain
10:48 AM 48.2 °F - 48.2 °F 100% 29.75 in 3.0 mi SW 3.5 mph - N/A Rain Light Rain
10:58 AM 48.4 °F - 48.4 °F 100% 29.75 in 6.0 mi SSW 2.3 mph - 0.21 in Rain Light Rain
11:23 AM 48.2 °F - 48.2 °F 100% 29.75 in 2.5 mi SW 2.3 mph - N/A Rain Rain
11:38 AM 48.2 °F - 48.2 °F 100% 29.76 in 3.0 mi SW 3.5 mph - N/A Rain Rain
11:53 AM 48.2 °F - 48.2 °F 100% 29.72 in 2.5 mi North - - N/A Rain Rain
11:58 AM 48.2 °F - 48.2 °F 100% 29.73 in 2.5 mi Calm Calm - 0.16 in Rain Rain
12:08 PM 48.2 °F - 48.2 °F 100% 29.72 in 4.0 mi Variable 3.5 mph - N/A Rain Light Rain
12:58 PM 48.2 °F - 48.2 °F 100% 29.69 in 5.0 mi ESE 13.8 mph - 0.11 in Rain Light Rain
1:21 PM 48.2 °F - 48.2 °F 100% 29.63 in 10.0 mi ESE 10.4 mph - N/A   Mostly Cloudy
1:44 PM 48.2 °F - 48.2 °F 100% 29.65 in 10.0 mi Variable 4.6 mph - N/A Rain Light Rain
1:56 PM 50.0 °F - 50.0 °F 100% 29.65 in 10.0 mi Variable 4.6 mph - N/A   Overcast
1:58 PM 50.0 °F - 50.0 °F 100% 29.65 in 10.0 mi Variable 3.5 mph - 0.04 in   Overcast
2:03 PM 50.0 °F - 50.0 °F 100% 29.64 in 10.0 mi Variable 5.8 mph - N/A   Overcast
2:28 PM 51.8 °F - 51.8 °F 100% 29.65 in 10.0 mi SSW 9.2 mph - N/A   Mostly Cloudy
2:38 PM 53.6 °F - 51.8 °F 94% 29.65 in 10.0 mi SSW 12.7 mph 18.4 mph N/A   Mostly Cloudy
2:43 PM 53.6 °F - 51.8 °F 94% 29.66 in 10.0 mi SW 10.4 mph 18.4 mph N/A   Mostly Cloudy
2:48 PM 53.6 °F - 51.8 °F 94% 29.65 in 10.0 mi SSW 10.4 mph 18.4 mph N/A   Overcast
2:58 PM 53.8 °F - 50.9 °F 90% 29.64 in 10.0 mi Variable 5.8 mph 17.3 mph 0.00 in   Overcast
3:53 PM 57.2 °F - 48.2 °F 72% 29.65 in 10.0 mi SSW 8.1 mph 18.4 mph N/A   Scattered Clouds
3:58 PM 57.4 °F - 47.8 °F 70% 29.65 in 10.0 mi SW 8.1 mph 18.4 mph N/A   Mostly Cloudy
4:58 PM 58.5 °F - 45.9 °F 63% 29.64 in 10.0 mi SSW 6.9 mph - N/A   Scattered Clouds
5:24 PM 57.2 °F - 46.4 °F 67% 29.64 in 10.0 mi South 8.1 mph - N/A Rain Light Rain
5:35 PM 55.4 °F - 46.4 °F 72% 29.66 in 10.0 mi West 10.4 mph - N/A   Overcast
5:37 PM 55.4 °F - 46.4 °F 72% 29.67 in 8.0 mi West 12.7 mph 18.4 mph N/A Rain Light Rain
5:52 PM 50.0 °F - 48.2 °F 94% 29.68 in 10.0 mi West 9.2 mph 21.9 mph N/A   Light Drizzle
5:53 PM 50.0 °F - 48.2 °F 94% 29.68 in 10.0 mi West 11.5 mph 21.9 mph N/A   Overcast
5:58 PM 49.5 °F - 48.9 °F 98% 29.69 in 10.0 mi West 11.5 mph 21.9 mph 0.00 in   Overcast
6:10 PM 48.2 °F - 46.4 °F 93% 29.68 in 10.0 mi WSW 15.0 mph 29.9 mph N/A   Light Drizzle
6:15 PM 48.2 °F - 44.6 °F 87% 29.69 in 10.0 mi WSW 11.5 mph 23.0 mph N/A Rain Light Rain
6:30 PM 48.2 °F - 44.6 °F 87% 29.70 in 10.0 mi WSW 11.5 mph 25.3 mph N/A   Light Drizzle
6:35 PM 46.4 °F 41.1 °F 44.6 °F 93% 29.70 in 10.0 mi WSW 11.5 mph - N/A Rain Light Rain
6:45 PM 46.4 °F 42.4 °F 44.6 °F 93% 29.71 in 10.0 mi WSW 8.1 mph 18.4 mph N/A   Overcast
6:58 PM 46.4 °F 41.9 °F 44.6 °F 93% 29.72 in 10.0 mi WSW 9.2 mph 17.3 mph 0.01 in   Overcast
7:58 PM 44.4 °F 39.0 °F 40.5 °F 86% 29.75 in 10.0 mi WSW 10.4 mph 19.6 mph N/A   Overcast
8:08 PM 44.6 °F 39.2 °F 41.0 °F 87% 29.74 in 10.0 mi West 10.4 mph - N/A   Overcast
8:13 PM 44.6 °F 38.4 °F 41.0 °F 87% 29.74 in 10.0 mi West 12.7 mph 24.2 mph N/A   Overcast
8:18 PM 42.8 °F 37.5 °F 41.0 °F 93% 29.75 in 10.0 mi WSW 9.2 mph 24.2 mph N/A   Overcast
8:58 PM 42.4 °F 36.5 °F 40.1 °F 91% 29.79 in 10.0 mi WSW 10.4 mph 16.1 mph N/A   Overcast
9:18 PM 41.0 °F 34.3 °F 39.2 °F 93% 29.77 in 10.0 mi West 11.5 mph - N/A   Overcast
9:38 PM 39.2 °F 33.6 °F 39.2 °F 100% 29.78 in 10.0 mi WSW 8.1 mph 24.2 mph N/A   Overcast
9:58 PM 39.2 °F 32.0 °F 38.7 °F 98% 29.81 in 10.0 mi WSW 11.5 mph 17.3 mph N/A   Overcast
10:03 PM 39.2 °F 32.5 °F 37.4 °F 93% 29.79 in 10.0 mi WSW 10.4 mph 17.3 mph N/A   Overcast
10:41 PM 37.4 °F 30.8 °F 37.4 °F 100% 29.80 in 10.0 mi West 9.2 mph 21.9 mph N/A   Light Drizzle
10:51 PM 37.4 °F 31.4 °F 35.6 °F 93% 29.80 in 10.0 mi West 8.1 mph - N/A   Overcast
10:56 PM 35.6 °F 27.5 °F 35.6 °F 100% 29.80 in 10.0 mi West 11.5 mph 19.6 mph N/A   Overcast
10:58 PM 35.6 °F 27.1 °F 35.6 °F 100% 29.82 in 10.0 mi West 12.7 mph 19.6 mph 0.00 in   Overcast
11:58 PM 34.7 °F 28.8 °F 34.5 °F 99% 29.83 in 10.0 mi Variable 6.9 mph 18.4 mph N/A   Overcast
12:58 AM 33.3 °F 24.6 °F 32.9 °F 99% 29.84 in 10.0 mi West 11.5 mph 20.7 mph N/A   Overcast